SCP
0 0 0 0 0 0 0 0 0 0 0 0 0 0 0 0 0 0 0 0 0 0 0 -0 -0 -0 -0 0 0 0 0 0 0 0 0 0 0 0 0 0 0 0 0
0 0 0 0 0 0 0 0 0 0 0 0 0 0 0 0 0 0 0 0 0 0 0 -0 -0 -0 -0 -0 0 0 0 0 0 0 0 0 0 0 0 0 0 0 0
0 0 0 0 0 0 0 0 0 0 0 0 0 0 0 0 0 0 0 0 0 0 0 -0 -0 -0 -0 -0 0 0 0 0 0 0 0 0 0 0 0 0 0 0 0
0 0 0 0 0 0 0 0 0 0 0 0 0 0 0 0 0 0 0 0 0 0 0 -0 -0 -0 -0 0 0 0 0 0 0 0 0 0 0 0 0 0 0 0 0
0 0 0 0 0 0 0 0 0 0 0 0 0 0 0 0 0 0 0 0 0 0 0 0 -0 -0 0 0 0 0 0 0 0 0 0 0 0 0 0 0 0 0 0
0 0 0 0 0 0 0 0 0 0 0 0 0 0 0 0 0 0 0 0 0 0 0 0 0 0 0 0 0 0 0 0 0 0 0 0 0 0 0 0 0 0 0
0 0 0 0 0 0 0 0 0 0 0 0 0 0 0 0 0 0 0 0 0 0 0 0 0 0 0 0 0 0 0 0 0 0 0 0 0 0 0 0 0 0 0
0 0 0 0 0 0 0 0 0 0 0 0 0 0 0 0 0 0 0 0 0 0 0 0 0 0 0 0 0 0 0 0 0 0 0 0 0 0 0 0 0 0 0
0 0 0 0 0 0 0 0 0 0 0 0 0 0 0 0 0 0 0 0 0 0 0 0 0 0 0 0 0 0 0 0 0 0 0 0 0 0 0 0 0 0 0
0 0 0 0 0 0 0 0 0 0 0 0 0 0 0 0 0 0 0 0 0 0 0 0 0 0 0 0 0 0 0 0 0 0 0 0 0 0 0 0 0 0 0
0 0 0 0 0 0 0 0 0 0 0 0 0 0 0 0 0 0 0 0 0 0 0 0 0 0 0 0 0 0 0 0 0 0 0 0 0 0 0 0 0 0 0
0 0 0 0 0 0 0 0 0 0 0 0 0 0 0 0 0 0 0 0 0 0 0 0 0 0 0 0 0 0 0 0 0 0 0 0 0 0 0 0 0 0 0
0 0 0 0 0 0 0 0 0 0 0 0 0 0 0 0 0 0 0 0 0 0 0 0 0 0 0 0 0 0 0 0 0 0 0 0 0 0 0 0 0 0 0
0 0 0 0 0 0 0 0 0 0 0 0 0 0 0 0 0 0 0 0 0 0 0 0 0 0 0 0 0 0 0 0 0 0 0 0 0 0 0 0 0 0 0
0 0 0 0 0 0 0 0 0 0 0 0 0 0 0 0 0 0 0 0 0 0 0 0 0 0 0 0 0 0 0 0 0 0 0 0 0 0 0 0 0 0 0
0 0 0 0 0 0 0 0 0 0 0 0 0 0 0 0 0 0 0 0 0 0 0 0 0 0 0 0 0 0 0 0 0 0 0 0 0 0 0 0 0 0 0
0 0 0 0 0 0 0 0 0 0 0 0 0 0 0 0 0 0 0 0 0 0 0 0 0 0 0 0 0 0 0 0 0 0 0 0 0 0 0 0 0 0 0
0 0 0 0 0 0 0 0 0 0 0 0 0 0 0 0 0 0 0 0 0 0 0 0 0 0 0 0 0 0 0 0 0 0 0 0 0 0 0 0 0 0 0
0 0 0 0 0 0 0 0 0 0 0 0 0 0 0 0 0 0 0 0 0 0 0 0 0 0 0 0 0 0 0 0 0 0 0 0 0 0 0 0 0 0 0
0 0 0 0 0 0 0 0 0 0 0 0 0 0 0 0 0 0 0 0 0 0 0 0 0 0 0 0 0 0 0 0 0 0 0 0 0 0 0 0 0 0 0
0 0 0 0 0 0 0 0 0 0 0 0 0 0 0 0 0 0 0 0 0 0 0 0 0 0 0 0 0 0 0 0 0 0 0 0 0 0 0 0 0 0 0
0 0 0 0 0 0 0 0 0 0 0 0 0 0 0 0 0 0 0 0 0 0 0 0 0 0 0 0 0 0 0 0 0 0 0 0 0 0 0 0 0 0 0
0 0 0 0 0 0 0 0 0 0 0 0 0 0 0 0 0 0 0 0 0 0 0 0 0 0 0 0 0 0 0 0 0 0 0 0 0 0 0 0 0 0 0
0 0 0 0 0 0 0 0 0 0 0 0 0 0 0 0 0 0 0 0 0 0 0 0 0 0 0 0 0 0 0 0 0 0 0 0 0 0 0 0 0 0 0
0 0 0 0 0 0 0 0 0 0 0 0 0 0 0 0 0 0 0 0 0 0 0 0 0 0 0 0 0 0 0 0 0 0 0 0 0 0 0 0 0 0 0
0 0 0 0 0 0 0 0 0 -0 -0 -0 -0 0 0 0 0 0 0 0 0 0 0 0 0 0 0 0 0 0 0 0 0 0 0 0 0 0 0 0 0 0 0
Wind_Speed
2 2 2 1 1 1 2 3 2 3 3 3 4 5 5 5 6 6 6 6 6 5 4 5 5 4 3 3 3 3 3 3 3 2 1 1 2 2 2 1 2 2 3
2 2 2 2 1 1 2 2 2 2 3 3 4 4 5 5 6 6 7 7 7 7 6 6 5 4 4 4 3 4 4 3 3 3 2 2 3 3 2 2 2 2 2
1 1 2 1 1 2 2 2 2 2 3 3 3 4 4 4 5 6 6 6 7 7 7 7 6 6 6 4 5 4 3 3 2 3 2 1 1 2 1 2 2 2 2
2 2 2 2 2 2 2 2 2 2 3 3 3 4 4 5 5 5 5 6 6 6 6 7 7 7 7 6 5 5 4 4 3 3 2 2 2 2 2 2 2 2 2
2 2 2 2 2 2 2 2 2 2 3 3 3 3 4 4 5 6 6 6 6 6 6 6 7 8 9 7 5 5 5 4 4 3 3 2 2 3 4 3 3 2 2
2 2 2 2 2 2 2 2 2 2 2 3 3 4 4 4 6 8 6 6 6 6 6 6 6 7 8 10 10 9 8 6 6 5 4 5 5 5 3 3 3 2 3
2 2 2 2 2 2 2 2 2 2 2 3 3 4 4 5 7 8 8 5 6 6 6 5 5 5 6 5 7 8 8 9 9 6 6 6 6 6 5 5 5 4 4
2 2 2 2 2 2 2 2 2 2 2 2 3 4 4 5 7 7 7 5 5 5 6 6 6 6 6 6 5 5 5 5 6 6 6 6 5 5 6 5 4 2 1
2 3 3 3 3 2 3 3 3 2 2 3 3 3 4 5 6 6 6 3 4 4 5 5 6 6 8 8 6 5 5 4 4 5 5 5 5 5 5 3 3 3 2
3 3 3 3 3 3 3 3 2 2 2 3 3 3 4 5 6 6 6 3 4 4 4 5 7 8 9 8 6 6 6 4 3 3 3 3 3 4 6 5 5 4 2
2 2 2 2 3 3 2 2 1 2 2 2 3 3 3 5 6 6 6 4 4 4 4 4 4 8 9 9 7 5 6 4 3 3 3 2 2 2 3 3 3 4 4
2 2 2 2 2 1 1 1 1 2 2 2 2 2 2 3 4 5 7 6 5 4 4 3 4 7 8 8 6 6 6 4 2 2 3 3 2 2 2 2 2 2 2
2 2 2 1 1 1 1 1 1 1 2 2 2 2 2 2 3 5 6 6 6 4 4 6 6 7 6 5 6 6 5 3 3 3 3 3 2 2 2 1 1 1 0
1 2 1 0 1 0 1 1 1 1 2 2 2 2 2 2 2 3 3 3 4 3 2 4 5 5 3 3 3 3 2 3 3 3 3 2 2 2 2 2 2 2 1
1 1 1 1 0 0 1 1 2 2 3 3 3 3 3 3 4 5 3 3 3 3 2 2 2 2 2 1 1 1 2 2 3 3 3 3 2 2 2 2 2 2 2
1 1 1 1 1 0 1 2 3 3 4 5 5 4 4 4 4 4 4 4 4 3 2 3 3 3 3 3 3 2 2 3 3 3 3 3 3 3 3 2 2 3 3
1 1 1 1 1 1 1 1 1 2 3 4 4 5 4 3 3 3 3 4 4 3 2 2 3 3 3 3 3 3 3 3 3 3 3 3 3 3 3 3 3 3 3
1 2 2 1 1 1 1 1 1 1 2 2 3 4 4 3 3 2 2 1 1 1 2 3 3 3 3 3 3 3 2 2 2 2 3 3 3 3 4 4 4 4 4
1 1 1 1 1 1 1 1 1 1 1 2 2 3 4 4 3 3 2 0 1 1 1 2 2 3 3 3 3 3 3 3 3 3 3 3 3 4 4 4 4 5 4
1 3 3 1 1 1 1 1 1 1 1 1 2 2 2 2 1 2 1 0 1 1 1 2 2 2 2 3 3 3 3 3 3 3 3 3 3 4 4 5 4 4 4
1 2 3 2 1 1 1 1 1 1 1 2 2 2 3 1 1 2 1 1 1 2 2 2 2 2 2 2 3 3 3 3 3 3 3 3 4 4 4 4 4 4 4
1 1 1 1 1 1 1 1 1 1 1 2 2 2 4 2 1 2 2 2 2 2 2 2 2 2 2 2 3 3 3 3 4 4 4 3 3 3 3 3 4 4 4
1 1 1 1 1 2 2 1 1 1 1 2 2 2 2 1 2 2 2 2 2 2 1 1 2 2 2 2 2 3 4 4 4 4 4 4 3 3 3 4 4 4 4
0 0 1 1 1 1 1 2 2 2 2 2 2 2 2 2 2 2 2 2 2 2 2 2 2 3 3 2 2 3 3 4 4 4 5 5 4 4 4 4 4 5 5
0 1 1 1 1 1 1 2 2 2 2 2 2 2 2 2 2 2 2 2 2 2 2 2 2 2 3 4 4 4 6 7 6 4 4 5 5 5 5 5 5 4 4
0 1 1 1 1 1 1 2 2 2 2 2 2 2 2 2 3 3 2 2 2 2 2 2 3 4 4 4 5 6 8 8 8 7 4 4 5 5 5 4 5 5 5
Wind_Direction
298 291 280 270 254 227 218 215 211 213 215 220 205 197 196 194 190 193 199 194 199 204 204 202 210 203 201 200 199 197 205 192 214 243 219 201 199 208 237 236 246 236 249
281 281 279 274 238 226 243 235 220 222 221 221 206 202 200 199 196 196 201 199 199 203 208 206 209 204 204 204 203 207 207 200 192 220 225 213 217 212 209 221 249 262 256
277 270 273 271 243 238 249 250 232 224 226 225 201 203 200 201 203 204 202 201 203 205 204 206 207 201 207 206 205 209 209 204 193 194 216 223 223 207 197 233 242 258 266
279 269 262 258 251 245 251 253 247 230 226 223 211 209 203 202 203 206 208 203 204 208 207 207 205 204 206 202 206 207 205 199 188 186 198 206 210 197 187 213 239 236 260
269 271 269 269 268 252 245 249 255 252 243 221 214 214 212 210 207 206 201 203 204 209 212 213 212 210 212 210 209 202 196 202 193 195 201 204 207 197 210 211 228 242 255
250 262 272 273 270 253 244 243 247 254 256 225 216 213 217 227 231 227 213 201 203 207 211 215 217 215 217 219 224 220 209 206 202 199 208 211 217 215 207 208 211 218 248
247 260 265 257 257 255 252 241 242 250 254 237 222 214 218 229 232 229 226 210 203 208 209 211 217 219 218 213 221 227 228 232 221 210 208 215 211 207 198 206 212 215 232
243 255 258 250 254 256 243 240 243 249 240 243 237 225 223 230 234 231 229 214 206 210 212 210 213 218 217 209 207 217 225 233 230 221 218 218 213 201 200 205 207 209 297
242 245 248 246 252 250 246 247 246 244 248 250 243 230 228 236 239 235 228 205 208 216 218 214 214 218 222 215 205 210 222 236 242 231 228 223 218 211 198 171 173 193 240
252 252 250 246 246 243 243 245 252 249 251 256 258 242 231 232 239 238 230 206 209 215 220 221 224 224 224 216 206 203 214 223 214 210 218 219 208 205 201 191 188 198 214
282 264 254 248 249 246 245 245 234 253 252 247 255 262 242 237 239 239 238 218 209 212 216 218 222 227 227 222 217 213 217 206 194 195 193 195 192 195 200 199 200 201 206
289 272 264 255 258 261 243 254 235 225 235 244 243 256 250 243 241 238 240 240 227 217 219 218 219 226 230 227 229 223 219 204 183 184 189 197 199 206 209 207 203 216 222
299 286 275 271 264 243 217 227 235 220 223 246 243 245 253 247 241 252 249 245 239 228 220 224 225 224 230 230 229 217 202 191 188 201 206 210 211 204 190 190 171 149 83
298 306 297 255 282 284 252 226 221 228 229 240 246 247 253 252 240 240 232 234 233 228 220 220 222 214 215 214 207 207 199 196 200 208 205 201 187 187 191 193 191 178 179
328 319 323 320 258 277 279 250 246 241 235 237 236 234 234 241 248 260 254 230 212 211 194 180 180 179 178 182 187 195 197 200 211 210 196 191 193 198 203 199 196 188 199
330 331 322 319 309 291 322 331 319 293 293 289 285 273 257 257 261 260 259 255 247 224 199 182 187 190 194 198 201 213 213 212 212 208 198 196 196 197 203 204 202 200 207
319 316 310 314 313 312 302 300 324 332 324 317 312 308 295 288 284 278 265 249 236 225 195 182 192 198 199 198 206 217 228 219 211 208 203 199 197 198 201 206 211 210 215
340 321 324 317 301 289 282 275 271 287 312 320 323 319 316 312 304 304 301 276 227 218 196 195 201 204 200 200 205 213 218 217 213 213 205 199 198 199 203 209 212 214 217
338 332 331 325 313 296 294 289 280 290 296 312 335 335 335 333 336 342 351 57 201 221 215 206 204 202 203 202 206 209 212 216 213 210 205 201 199 199 209 214 217 224 225
333 330 339 341 340 343 335 313 311 307 304 304 307 311 323 329 337 339 338 280 231 243 242 224 216 207 207 207 207 207 210 214 211 212 209 204 202 203 208 213 217 220 226
334 333 337 350 350 329 321 308 300 296 294 296 292 296 301 293 291 294 292 285 259 250 244 233 223 214 214 213 209 207 212 222 220 212 209 206 203 206 211 215 218 221 223
348 344 344 340 339 329 320 307 293 287 289 293 301 310 317 320 301 283 280 282 277 265 249 233 230 226 217 214 212 210 217 223 220 209 206 205 204 207 209 213 216 216 218
353 344 339 341 340 321 329 336 323 303 294 293 297 301 299 292 283 280 281 286 288 282 268 245 237 237 231 226 219 215 222 227 221 207 201 203 206 209 209 213 215 214 219
338 317 318 325 331 328 321 317 315 311 308 303 301 296 292 287 283 284 287 287 284 279 273 260 248 238 232 234 237 233 232 234 223 209 200 199 206 211 211 213 219 218 218
337 298 295 299 302 302 306 309 309 308 309 307 302 299 296 293 290 289 288 285 279 270 267 264 257 246 240 241 243 241 241 244 242 224 202 200 206 211 212 215 216 216 220
324 303 298 299 297 293 291 293 297 299 298 299 300 299 298 297 294 292 288 283 282 278 274 269 259 253 250 247 246 248 251 250 248 241 225 206 206 212 212 216 213 214 216